GW1533 Weather Reports


time (UTC)temp
C
wind
direction
speed
KPH
gust
KPH
rain 1hr
cm
rain 24hr
cm
rain mn
cm
humidity
%
barometer
mb
20260506231931 14 293 0.0 0.0 0.00 0.33 0.33 94 1008.7
20260506231429 14 241 1.6 3.2 0.00 0.33 0.33 94 1008.7
20260506230926 14 281 0.0 1.6 0.00 0.33 0.33 94 1008.4
20260506230423 14 261 1.6 1.6 0.00 0.33 0.33 94 1008.7
20260506225919 14 279 0.0 0.0 0.13 0.33 0.33 94 1008.5
20260506225417 14 291 1.6 1.6 0.18 0.30 0.30 94 1008.8
20260506224914 14 289 0.0 1.6 0.30 0.30 0.30 94 1008.5
20260506224411 15 282 0.0 1.6 0.13 0.28 0.28 94 1008.7
20260506223907 15 268 0.0 3.2 0.18 0.25 0.25 94 1008.8
20260506223402 15 276 0.0 1.6 0.18 0.25 0.25 94 1008.6
20260506222900 15 280 1.6 3.2 0.00 0.23 0.23 94 1008.8
20260506222356 15 285 1.6 1.6 0.00 0.23 0.23 94 1008.8
20260506221853 15 228 1.6 1.6 0.00 0.23 0.23 93 1008.8
20260506221350 15 232 1.6 3.2 0.00 0.23 0.23 93 1009.1
20260506220848 15 283 0.0 3.2 0.00 0.23 0.23 93 1008.7
20260506220343 15 286 0.0 4.8 0.00 0.23 0.23 93 1008.9
20260506215840 15 266 1.6 1.6 0.00 0.23 0.23 93 1009.0
20260506215336 15 277 1.6 3.2 0.13 0.23 0.23 93 1008.9
20260506214827 15 253 3.2 3.2 0.13 0.23 0.23 93 1009.0
20260506214323 15 225 1.6 1.6 0.00 0.20 0.20 92 1008.9
20260506213822 15 275 0.0 1.6 0.00 0.20 0.20 92 1009.0
20260506213319 15 288 1.6 12.9 0.00 0.20 0.20 92 1009.1
20260506212816 15 290 1.6 4.8 0.00 0.20 0.20 92 1009.1
20260506212312 15 284 0.0 3.2 0.00 0.20 0.20 92 1009.4
20260506211807 15 285 1.6 4.8 0.18 0.20 0.20 92 1009.5
20260506211303 15 303 3.2 8.0 0.18 0.20 0.20 92 1009.3
20260506210800 15 284 0.0 3.2 0.00 0.18 0.18 92 1009.3
20260506210257 15 255 3.2 3.2 0.00 0.18 0.18 91 1009.3
20260506205754 15 283 0.0 4.8 0.00 0.18 0.18 91 1009.5
20260506205250 15 112 9.7 11.3 0.00 0.18 0.18 91 1009.6
20260506204747 15 271 1.6 8.0 0.00 0.18 0.18 91 1009.4
20260506204245 15 216 0.0 3.2 0.00 0.18 0.18 91 1009.6
20260506203742 15 269 0.0 1.6 0.00 0.18 0.18 91 1009.6
20260506203239 15 43 1.6 3.2 0.00 0.18 0.18 91 1009.6
20260506202736 15 263 1.6 9.7 0.00 0.18 0.18 91 1009.8
20260506202233 15 268 1.6 3.2 0.00 0.18 0.18 90 1009.5
20260506201730 15 261 1.6 3.2 0.00 0.18 0.18 90 1009.8
20260506201227 15 313 3.2 3.2 0.00 0.18 0.18 90 1009.7
20260506200724 15 216 1.6 9.7 0.13 0.18 0.18 90 1009.7
20260506200220 15 276 4.8 8.0 0.00 0.15 0.15 89 1009.6
20260506195716 15 300 3.2 4.8 0.00 0.15 0.15 90 1009.8
20260506195213 15 285 0.0 4.8 0.00 0.15 0.15 90 1009.9
20260506194710 15 192 3.2 4.8 0.00 0.15 0.15 90 1009.7
20260506194207 15 294 1.6 11.3 0.00 0.15 0.15 90 1009.8
20260506193705 16 284 0.0 3.2 0.00 0.15 0.15 90 1009.8
20260506193201 16 285 0.0 3.2 0.18 0.15 0.15 89 1009.8
20260506192658 16 286 1.6 4.8 0.18 0.15 0.15 89 1009.7
20260506192154 16 318 1.6 4.8 0.13 0.13 0.13 89 1009.9
20260506191651 16 145 1.6 11.3 0.13 0.13 0.13 89 1009.9
20260506191147 16 290 0.0 3.2 0.18 0.10 0.10 88 1009.9
20260506190645 16 261 3.2 4.8 0.18 0.10 0.10 87 1009.9
20260506190141 16 187 3.2 3.2 0.00 0.08 0.08 87 1009.8
20260506185638 16 258 1.6 3.2 0.13 0.08 0.08 86 1009.9
20260506185134 16 301 1.6 3.2 0.13 0.08 0.08 85 1010.0
20260506184632 17 236 1.6 3.2 0.18 0.05 0.05 84 1009.8
20260506184129 17 307 3.2 4.8 0.18 0.05 0.05 82 1010.1
20260506183626 17 316 0.0 4.8 0.18 0.03 0.03 81 1010.3
20260506183122 17 252 1.6 3.2 0.18 0.03 0.03 80 1010.3
20260506182620 18 113 1.6 4.8 0.00 0.00 0.00 79 1010.2
20260506182116 18 305 0.0 3.2 0.00 0.00 0.00 77 1010.6
20260506181614 18 303 1.6 3.2 0.00 0.00 0.00 76 1010.4
20260506181111 18 287 1.6 4.8 0.00 0.00 0.00 75 1010.2
20260506180608 19 284 1.6 4.8 0.00 0.00 0.00 74 1010.3
20260506180105 19 294 4.8 12.9 0.00 0.00 0.00 71 1010.4
20260506175601 20 321 1.6 22.5 0.00 0.00 0.00 70 1010.7
20260506175057 20 297 4.8 9.7 0.00 0.00 0.00 68 1010.5
20260506174556 20 295 6.4 14.5 0.00 0.00 0.00 67 1010.6
20260506174051 21 301 1.6 4.8 0.00 0.00 0.00 66 1010.4
20260506173549 21 317 4.8 8.0 0.00 0.00 0.00 63 1010.5
20260506173046 22 234 1.6 4.8 0.00 0.00 0.00 59 1010.2
20260506172544 22 246 1.6 12.9 0.00 0.00 0.00 59 1010.2
20260506172040 22 288 3.2 9.7 0.00 0.00 0.00 58 1010.3
20260506171537 22 354 9.7 12.9 0.00 0.00 0.00 57 1010.1
20260506171035 22 249 3.2 8.0 0.00 0.00 0.00 57 1010.2
20260506170532 22 324 3.2 9.7 0.00 0.00 0.00 57 1010.2
20260506170024 22 296 4.8 9.7 0.00 0.00 0.00 56 1010.2
20260506165522 22 196 4.8 8.0 0.00 0.00 0.00 57 1010.6
20260506165018 22 314 4.8 9.7 0.00 0.00 0.00 57 1010.5
20260506164515 22 125 6.4 12.9 0.00 0.00 0.00 56 1010.7
20260506164012 22 264 8.0 14.5 0.00 0.00 0.00 57 1010.6
20260506163507 21 308 4.8 8.0 0.00 0.00 0.00 60 1010.7
20260506163002 21 281 9.7 20.9 0.00 0.00 0.00 58 1010.9
20260506162459 21 293 1.6 17.7 0.00 0.00 0.00 60 1010.9
20260506161951 22 267 3.2 14.5 0.00 0.00 0.00 59 1010.7
20260506161449 21 301 1.6 9.7 0.00 0.00 0.00 58 1010.7
20260506160946 21 274 4.8 8.0 0.00 0.00 0.00 59 1010.8
20260506160444 21 34 6.4 9.7 0.00 0.00 0.00 59 1011.2
20260506155941 21 338 3.2 9.7 0.00 0.00 0.00 59 1011.2
20260506155438 21 306 1.6 11.3 0.00 0.00 0.00 60 1011.2
20260506153605 21 190 4.8 8.0 0.00 0.00 0.00 62 1011.4
20260506153103 21 165 1.6 9.7 0.00 0.00 0.00 62 1011.5
20260506152559 21 263 1.6 3.2 0.00 0.00 0.00 62 1011.5
20260506152057 21 324 3.2 4.8 0.00 0.00 0.00 62 1011.6
20260506151555 21 291 3.2 11.3 0.00 0.00 0.00 62 1011.8
20260506151052 21 257 1.6 3.2 0.00 0.00 0.00 62 1012.0
20260506150548 21 78 4.8 8.0 0.00 0.00 0.00 62 1011.8
20260506150045 21 257 8.0 11.3 0.00 0.00 0.00 62 1011.9
20260506145542 21 198 3.2 8.0 0.00 0.00 0.00 63 1012.0
20260506145040 21 153 4.8 8.0 0.00 0.00 0.00 63 1011.9
20260506144536 21 338 4.8 8.0 0.00 0.00 0.00 64 1011.8
20260506144033 21 278 1.6 3.2 0.00 0.00 0.00 64 1011.9
20260506143531 21 295 1.6 3.2 0.00 0.00 0.00 64 1011.8
20260506143029 20 216 3.2 11.3 0.00 0.00 0.00 66 1012.0
20260506142527 20 216 1.6 4.8 0.00 0.00 0.00 66 1012.0
20260506142025 20 174 0.0 8.0 0.00 0.00 0.00 66 1011.9
20260506141522 20 283 3.2 8.0 0.00 0.00 0.00 67 1011.9
20260506141021 20 298 3.2 3.2 0.00 0.00 0.00 68 1012.0
20260506140517 20 295 3.2 8.0 0.00 0.00 0.00 69 1011.9
20260506140015 19 296 1.6 9.7 0.00 0.00 0.00 70 1011.9
20260506135511 20 299 3.2 4.8 0.00 0.00 0.00 70 1011.8
20260506135008 20 285 1.6 8.0 0.00 0.00 0.00 69 1012.0
20260506134504 20 303 4.8 8.0 0.00 0.00 0.00 70 1012.2
20260506134000 18 230 3.2 3.2 0.00 0.00 0.00 71 1011.8
20260506133457 18 352 3.2 4.8 0.00 0.00 0.00 72 1012.1
20260506132954 18 164 3.2 4.8 0.00 0.00 0.00 71 1012.0
20260506132451 18 312 3.2 12.9 0.00 0.00 0.00 72 1012.0
20260506131949 18 182 0.0 4.8 0.00 0.00 0.00 73 1012.6
20260506131445 18 263 0.0 1.6 0.00 0.00 0.00 72 1012.7
20260506130942 18 143 1.6 4.8 0.00 0.00 0.00 73 1012.6
20260506130439 17 261 1.6 1.6 0.00 0.00 0.00 74 1012.6
20260506125937 17 146 3.2 4.8 0.00 0.00 0.00 74 1012.6
20260506125435 17 293 0.0 8.0 0.00 0.00 0.00 75 1012.6
20260506124933 17 186 3.2 4.8 0.00 0.00 0.00 74 1012.3
20260506124430 17 297 1.6 3.2 0.00 0.00 0.00 74 1012.8
20260506123928 18 286 0.0 3.2 0.00 0.00 0.00 73 1012.3
20260506123425 18 300 3.2 12.9 0.00 0.00 0.00 73 1012.7
20260506122923 17 291 1.6 3.2 0.00 0.00 0.00 73 1012.4
20260506122419 17 265 1.6 8.0 0.00 0.00 0.00 74 1012.7
20260506121918 17 275 0.0 4.8 0.00 0.00 0.00 74 1012.7
20260506121414 17 108 3.2 9.7 0.00 0.00 0.00 73 1012.7
20260506120911 17 281 0.0 1.6 0.00 0.00 0.00 74 1012.6
20260506120409 17 262 0.0 4.8 0.00 0.00 0.00 75 1012.6
20260506115906 17 298 0.0 3.2 0.00 0.00 0.00 75 1012.3
20260506115404 17 164 1.6 4.8 0.00 0.00 0.00 75 1012.4
20260506114902 17 293 3.2 8.0 0.00 0.00 0.00 75 1012.6
20260506114359 17 268 1.6 3.2 0.00 0.00 0.00 76 1012.7
20260506113858 16 256 1.6 3.2 0.00 0.00 0.00 76 1012.7
20260506113355 16 122 3.2 3.2 0.00 0.00 0.00 77 1012.9
20260506112851 15 282 3.2 3.2 0.00 0.00 0.00 79 1012.8
20260506112349 15 286 0.0 11.3 0.00 0.00 0.00 79 1012.8
20260506111846 16 332 1.6 3.2 0.00 0.00 0.00 79 1013.3
20260506111344 15 276 0.0 3.2 0.00 0.00 0.00 79 1013.3
20260506110841 15 250 1.6 1.6 0.00 0.00 0.00 79 1012.9
20260506110338 15 66 4.8 8.0 0.00 0.00 0.00 80 1013.1
20260506105835 15 253 0.0 1.6 0.00 0.00 0.00 80 1012.9
20260506105331 15 290 1.6 3.2 0.00 0.00 0.00 80 1013.0
20260506104829 15 295 1.6 3.2 0.00 0.00 0.00 80 1012.8
20260506104327 15 160 0.0 11.3 0.00 0.00 0.00 82 1012.9
20260506103824 15 67 4.8 4.8 0.00 0.00 0.00 83 1012.9
20260506103322 14 254 1.6 3.2 0.00 0.00 0.00 84 1013.0
20260506102819 14 255 0.0 1.6 0.00 0.00 0.00 84 1012.9
20260506102317 13 257 0.0 1.6 0.00 0.00 0.00 84 1012.6
20260506101814 13 290 0.0 3.2 0.00 0.00 0.00 84 1012.9
20260506101310 13 342 3.2 3.2 0.00 0.00 0.00 84 1013.0
20260506100808 14 253 0.0 1.6 0.00 0.00 0.00 84 1013.0
20260506100306 13 286 0.0 1.6 0.00 0.00 0.00 83 1012.8
20260506095804 13 305 1.6 3.2 0.00 0.00 0.00 84 1013.0
20260506095301 14 41 1.6 3.2 0.00 0.00 0.00 83 1013.0
20260506094757 13 279 3.2 8.0 0.00 0.00 0.00 84 1012.8
20260506094256 13 285 1.6 3.2 0.00 0.00 0.00 83 1012.6
20260506093754 13 261 3.2 3.2 0.00 0.00 0.00 83 1012.7
20260506093250 13 282 0.0 1.6 0.00 0.00 0.00 83 1012.7
20260506092749 13 291 0.0 1.6 0.00 0.00 0.00 83 1012.6
20260506092246 13 352 1.6 8.0 0.00 0.00 0.00 83 1012.7
20260506091743 13 268 1.6 3.2 0.00 0.00 0.00 83 1012.7
20260506091241 14 257 1.6 3.2 0.00 0.00 0.00 83 1012.7
20260506090739 14 291 0.0 1.6 0.00 0.00 0.00 82 1012.9
20260506090235 14 288 0.0 4.8 0.00 0.00 0.00 82 1012.6
20260506085732 14 322 0.0 3.2 0.00 0.00 0.00 82 1012.7
20260506085228 14 169 3.2 3.2 0.00 0.00 0.00 82 1012.8
20260506084725 14 283 0.0 1.6 0.00 0.00 0.00 82 1012.8
20260506084221 14 307 3.2 8.0 0.00 0.00 0.00 81 1013.0
20260506083718 14 305 1.6 3.2 0.00 0.00 0.00 81 1012.9
20260506083216 14 289 1.6 4.8 0.00 0.00 0.00 81 1012.9
20260506082713 14 274 3.2 8.0 0.00 0.00 0.00 81 1013.1
20260506082209 14 283 0.0 1.6 0.00 0.00 0.00 81 1013.0
20260506081707 14 277 4.8 4.8 0.00 0.00 0.00 81 1013.0
20260506081204 14 193 1.6 3.2 0.00 0.00 0.00 80 1013.0
20260506080702 15 300 1.6 3.2 0.00 0.00 0.00 80 1013.0
20260506080158 15 306 0.0 3.2 0.00 0.00 0.00 79 1012.9
20260506073143 15 320 4.8 9.7 0.00 0.00 0.00 78 1012.9
20260506072638 15 299 1.6 8.0 0.00 0.00 0.00 78 1013.0
20260506072137 15 332 3.2 8.0 0.00 0.00 0.00 77 1012.8
20260506071634 15 345 3.2 3.2 0.00 0.00 0.00 77 1012.6
20260506071131 15 283 6.4 11.3 0.00 0.00 0.00 76 1012.8
20260506070628 15 308 3.2 20.9 0.00 0.00 0.00 76 1012.6
20260506070125 15 280 1.6 8.0 0.00 0.00 0.00 76 1012.4
20260506062103 16 283 1.6 3.2 0.00 0.00 0.00 75 1012.2
20260506061558 16 282 1.6 14.5 0.00 0.00 0.00 75 1012.3
20260506061056 16 271 1.6 3.2 0.00 0.00 0.00 74 1012.3
20260506060555 16 286 0.0 1.6 0.00 0.00 0.00 74 1012.4
20260506051023 16 81 4.8 8.0 0.00 0.00 0.00 70 1012.8
20260506050521 16 298 1.6 4.8 0.00 0.00 0.00 70 1012.7
20260506045011 16 74 4.8 9.7 0.00 0.00 0.00 69 1012.8
20260506044510 16 306 1.6 3.2 0.00 0.00 0.00 69 1013.0
20260506044006 16 271 1.6 9.7 0.00 0.00 0.00 69 1012.6
20260506043503 16 49 3.2 4.8 0.00 0.00 0.00 69 1013.0
20260506043001 16 7 6.4 11.3 0.00 0.00 0.00 68 1012.8
20260506042500 16 84 4.8 8.0 0.00 0.00 0.00 68 1012.8
20260506041958 16 156 3.2 4.8 0.00 0.00 0.00 68 1013.0
20260506041456 16 262 1.6 12.9 0.00 0.00 0.00 68 1012.8
20260506040953 16 298 1.6 8.0 0.00 0.00 0.00 69 1012.8
20260506040451 16 287 0.0 9.7 0.00 0.00 0.00 68 1013.2
20260506035946 16 293 0.0 4.8 0.00 0.00 0.00 69 1012.9
20260506035443 16 341 3.2 11.3 0.00 0.00 0.00 69 1012.8
20260506034940 16 302 0.0 3.2 0.00 0.00 0.00 69 1012.9
20260506034438 16 350 3.2 4.8 0.00 0.00 0.00 69 1013.1
20260506033935 16 82 1.6 4.8 0.00 0.00 0.00 70 1012.8
20260506033432 16 299 1.6 4.8 0.00 0.00 0.00 69 1013.1
20260506032928 16 301 3.2 3.2 0.00 0.00 0.00 70 1012.8
20260506032426 16 278 1.6 4.8 0.00 0.00 0.00 70 1012.8
20260506031922 16 256 1.6 1.6 0.00 0.00 0.00 69 1012.7
20260506031419 16 23 1.6 4.8 0.00 0.00 0.00 69 1012.7
20260506030917 16 276 0.0 3.2 0.00 0.00 0.00 70 1013.0
20260506030415 16 307 3.2 12.9 0.00 0.00 0.00 69 1013.0
20260506025911 16 237 1.6 4.8 0.00 0.00 0.00 69 1012.9
20260506025409 16 297 1.6 3.2 0.00 0.00 0.00 69 1012.8
20260506024905 16 286 0.0 3.2 0.00 0.00 0.00 68 1012.9
20260506024402 16 354 1.6 3.2 0.00 0.00 0.00 68 1013.0
20260506023858 16 223 1.6 4.8 0.00 0.00 0.00 67 1012.8
20260506023355 16 321 3.2 9.7 0.00 0.00 0.00 67 1012.9
20260506022852 16 49 6.4 11.3 0.00 0.00 0.00 67 1012.8
20260506022349 16 214 1.6 4.8 0.00 0.00 0.00 66 1013.0
20260506021847 16 313 1.6 12.9 0.00 0.00 0.00 66 1012.7
20260506021344 17 184 3.2 4.8 0.00 0.00 0.00 66 1012.9
20260506020840 17 299 1.6 4.8 0.00 0.00 0.00 65 1012.9
20260506020339 17 258 0.0 4.8 0.00 0.00 0.00 65 1012.9
20260506015836 17 266 1.6 3.2 0.00 0.00 0.00 65 1012.8
20260506015333 17 73 3.2 3.2 0.00 0.00 0.00 65 1012.6
20260506014830 17 273 1.6 3.2 0.00 0.00 0.00 65 1012.7
20260506014327 17 340 4.8 9.7 0.00 0.00 0.00 64 1012.6
20260506013823 17 290 3.2 9.7 0.00 0.00 0.00 64 1012.6
20260506013321 17 230 1.6 3.2 0.00 0.00 0.00 64 1012.4
20260506012817 17 284 4.8 11.3 0.00 0.00 0.00 63 1012.4
20260506012314 17 336 1.6 1.6 0.00 0.00 0.00 63 1012.4
20260506011812 17 302 3.2 3.2 0.00 0.00 0.00 63 1012.1
20260506011308 17 275 0.0 4.8 0.00 0.00 0.00 63 1012.3
20260506010806 18 211 1.6 4.8 0.00 0.00 0.00 62 1011.9
20260506010303 18 219 3.2 4.8 0.00 0.00 0.00 62 1011.9
20260506005800 18 233 1.6 4.8 0.00 0.00 0.00 61 1011.9
20260506005257 18 233 4.8 12.9 0.00 0.00 0.00 61 1012.1
20260506004753 18 230 1.6 4.8 0.00 0.00 0.00 61 1011.9
20260506004251 18 317 3.2 8.0 0.00 0.00 0.00 60 1011.8
20260506003746 18 328 0.0 4.8 0.00 0.00 0.00 59 1011.8
20260506003243 19 209 1.6 3.2 0.00 0.00 0.00 59 1011.8
20260506002739 19 73 4.8 4.8 0.00 0.00 0.00 58 1011.6
20260506002235 19 285 1.6 9.7 0.00 0.00 0.00 58 1011.6
20260506001731 20 291 0.0 1.6 0.00 0.00 0.00 57 1011.1
20260506001229 20 284 3.2 4.8 0.00 0.00 0.00 56 1011.2
20260506000726 20 285 4.8 12.9 0.00 0.00 0.00 55 1011.2
20260506000223 20 0 4.8 12.9 0.00 0.00 0.00 55 1010.9
20260505235720 20 291 1.6 9.7 0.00 0.00 0.00 55 1011.1
20260505235218 20 311 3.2 9.7 0.00 0.00 0.00 55 1010.8
20260505234715 20 311 3.2 9.7 0.00 0.00 0.00 53 1010.7
20260505234212 20 322 0.0 14.5 0.00 0.00 0.00 53 1011.0
20260505233708 21 313 1.6 8.0 0.00 0.00 0.00 53 1010.6
20260505233206 21 65 1.6 4.8 0.00 0.00 0.00 53 1010.6
20260505232704 21 69 1.6 12.9 0.00 0.00 0.00 53 1010.8